Regional Weather Roundup
Issued by NWS

Home | Current Version | Previous Version | Text Only | Print | Product List | Glossary Off
Versions: 1 2 3 4 5 6 7 8 9 10 11 12 13 14 15 16 17 18 19 20 21 22 23 24 25 26 27 28 29 30 31 32 33 34 35 36 37 38 39 40 41 42 43 44 45 46 47 48 49 50

000
ASUS43 KLOT 302100
RWRIL

ILLINOIS REGIONAL WEATHER ROUNDUP
NATIONAL WEATHER SERVICE CHICAGO/ROMEOVILLE IL
400 PM CDT THU JUL 30 2015

NOTE: "FAIR" INDICATES FEW OR NO CLOUDS BELOW 12,000 FEET WITH NO
SIGNIFICANT WEATHER AND/OR OBSTRUCTIONS TO VISIBILITY.

* THESE STATIONS ARE NOT UNDER NWS QUALITY CONTROL. THEY ALSO MAY NOT
  REPORT WEATHER SUCH AS PRECIPITATION OR FOG.

ILZ001-002-007-009-015-016-024-302200-
NORTHWEST ILLINOIS

CITY           SKY/WX    TMP DP  RH WIND       PRES   REMARKS
MOLINE         SUNNY     89  61  38 W12       30.08F HX  89
STERLING*      SUNNY     88  64  45 NW12      30.04F HX  89
$$

ILZ003-004-008-010-011-017-018-302200-
NORTH CENTRAL ILLINOIS

CITY           SKY/WX    TMP DP  RH WIND       PRES   REMARKS
ROCKFORD       MOSUNNY   88  55  32 NW13G24   30.06F HX  86
$$

ILZ005-006-012>014-019>023-302200-
NORTHEAST ILLINOIS

CITY           SKY/WX    TMP DP  RH WIND       PRES   REMARKS
CHICAGO-OHARE  MOSUNNY   88  51  28 NW22      30.02F HX  85
CHICAGO-MIDWAY MOSUNNY   89  51  27 NW14G21   30.03F HX  86
AURORA         SUNNY     85  59  41 W14       30.05F HX  84
WAUKEGAN       MOSUNNY   85  54  34 W10G17    30.01F HX  83
DUPAGE AIRPORT SUNNY     86  55  34 W14       30.04F HX  84
WHEELING       SUNNY     88  51  28 W13G21    30.03F HX  85
NORTHERLY ISL    N/A     87  51  28 W10         N/A  HX  85
$$

LMZ740>746-302200-
SOUTHERN LAKE MICHIGAN

STATION/POSITION SKY/WX   TEMP    WIND        PRES    VSBY  WAVE
                          AIR SEA DIR/SP/G                  HT/PER
                          (F)     (DEG/KT/KT) (MB)    (MI)  (FT/S)
HARRISON CRIB              83     300/ 13/ 19   N/A
BURNHAM HARBOR             86     290/  8/ 16   N/A
CALUMET HARBOR             87     300/  5/  9   N/A
BURNS HARBOR               81      40/  1/  2 1017.6F
MICHIGAN CITY              79     210/  5/  5   N/A
MICHIGAN CITY 6N           77 75  220/  4/  6   N/A           1/ 4
ST. JOSEPH                 75 74  260/  8/ 10   N/A           2/ 4
$$

ILZ025>027-034>036-040-047-049-050-058-095>099-302200-
WEST-CENTRAL ILLINOIS

CITY           SKY/WX    TMP DP  RH WIND       PRES   REMARKS
QUINCY         SUNNY     87  59  38 W10       30.13F HX  86
MACOMB*        SUNNY     86  65  49 W9        30.14F HX  87
$$

ILZ028>032-037-038-041>044-048-051>054-059>061-302200-
CENTRAL ILLINOIS

CITY           SKY/WX    TMP DP  RH WIND       PRES   REMARKS
DECATUR        SUNNY     89  58  34 NW13G21   30.11F HX  88
PEORIA         SUNNY     89  63  41 W12       30.09F HX  90
SPRINGFIELD    SUNNY     88  64  44 NW10      30.11F HX  89
TAYLORVILLE    NOT AVBL
$$

ILZ033-039-045-046-055>057-062-063-302200-
EAST-CENTRAL ILLINOIS

CITY           SKY/WX    TMP DP  RH WIND       PRES   REMARKS
CHAMPAIGN      SUNNY     86  64  47 W9        30.10F HX  87
MATTOON        SUNNY     88  59  37 W12       30.10F HX  87
$$

ILZ079-100>102-302200-
SOUTHWEST ILLINOIS

CITY           SKY/WX    TMP DP  RH WIND       PRES   REMARKS
BELLEVILLE     MOSUNNY   89  63  41 VRB5      30.12F HX  90
CAHOKIA*       SUNNY     92  54  27 N9        30.13F HX  90
SPARTA*        SUNNY     87  58  36 N6        30.14F HX  86
$$

ILZ064>066-069>071-074>076-080>082-084>086-088>090-092>094-302200-
SOUTH-CENTRAL ILLINOIS

CITY           SKY/WX    TMP DP  RH WIND       PRES   REMARKS
CARBONDALE     SUNNY     88  59  37 NW7       30.12F HX  87
MT. VERNON     MOSUNNY   88  61  40 CALM      30.13S HX  88
SALEM*         MOSUNNY   88  58  36 NW5       30.13F HX  87
$$

ILZ067-068-072-073-078-083-087-091-302200-
SOUTHEAST ILLINOIS

CITY           SKY/WX    TMP DP  RH WIND       PRES   REMARKS
LAWRENCEVILLE  SUNNY     87  58  37 NW16      30.10F HX  86
FLORA*         SUNNY     86  60  40 NW9       30.12S HX  85
HARRISBURG*    MOSUNNY   86  60  40 NW6       30.12F HX  86
ROBINSON*      SUNNY     86  59  40 NW8       30.11S HX  86
CARMI*         SUNNY     86  58  38 CALM      30.10F HX  85
$$

ABBREVIATIONS USED IN REMARKS
   TC - TEMPERATURE IN CELSIUS
  WCI - WIND CHILL INDEX
   HX - HEAT INDEX
  VSB - VISIBILITY
$$



USA.gov is the U.S. government's official web portal to all federal, state and local government web resources and services.